Previsão horária em Plesno

Hoje, 3 Março, Quarta-feira

Tempo Temperatura Precipitação Vento Pressão Humidade
00:00 +1°C° 0 mm 0 m/s 762 mmHg 93%
01:00 +2°C° 0 mm 1 m/s 762 mmHg 93%
02:00 +2°C° 0 mm 1 m/s 762 mmHg 92%
03:00 +2°C° 0 mm 1 m/s 761 mmHg 92%
04:00 +1°C° 0 mm 1 m/s 761 mmHg 91%
05:00 +1°C° 0 mm 1 m/s 761 mmHg 90%
06:00 +1°C° 0 mm 1 m/s 760 mmHg 88%
07:00 -1°C° 0 mm 2 m/s 760 mmHg 87%
08:00 +2°C° 0 mm 2 m/s 760 mmHg 77%
09:00 +4°C° 0 mm 2 m/s 759 mmHg 67%
10:00 +6°C° 0 mm 2 m/s 759 mmHg 58%
11:00 +7°C° 0 mm 2 m/s 759 mmHg 55%
12:00 +8°C° 0 mm 2 m/s 758 mmHg 52%
13:00 +10°C° 0 mm 2 m/s 758 mmHg 49%
14:00 +9°C° 0 mm 2 m/s 757 mmHg 53%
15:00 +9°C° 0 mm 2 m/s 756 mmHg 57%
16:00 +9°C° 0 mm 2 m/s 756 mmHg 61%
17:00 +8°C° 0 mm 2 m/s 755 mmHg 68%
18:00 +6°C° 0 mm 2 m/s 754 mmHg 76%
19:00 +5°C° 0 mm 2 m/s 754 mmHg 83%
20:00 +4°C° 0 mm 3 m/s 753 mmHg 85%
21:00 +3°C° 0 mm 3 m/s 752 mmHg 87%
22:00 +3°C° 0 mm 3 m/s 752 mmHg 89%
23:00 +3°C° 0 mm 3 m/s 751 mmHg 91%

Amanhã, 4 Março, Quinta-feira

Tempo Temperatura Precipitação Vento Pressão Humidade
00:00 +3°C° 0 mm 3 m/s 751 mmHg 92%
01:00 +3°C° 0 mm 3 m/s 750 mmHg 94%
02:00 +3°C° 0 mm 4 m/s 750 mmHg 94%
03:00 +3°C° 0 mm 4 m/s 749 mmHg 94%
04:00 +3°C° 0 mm 4 m/s 748 mmHg 94%
05:00 +2°C° 0 mm 5 m/s 748 mmHg 92%
06:00 +1°C° 0 mm 5 m/s 748 mmHg 89%
07:00 +1°C° 0 mm 5 m/s 748 mmHg 86%
08:00 +1°C° 0 mm 5 m/s 748 mmHg 86%
09:00 +1°C° 0 mm 5 m/s 748 mmHg 85%
10:00 0°C° 0 mm 5 m/s 748 mmHg 84%
11:00 +1°C° 0 mm 4 m/s 748 mmHg 83%
12:00 +1°C° 0 mm 4 m/s 748 mmHg 82%
13:00 +1°C° 0 mm 4 m/s 749 mmHg 81%
14:00 0°C° 0.1 mm 4 m/s 749 mmHg 84%
15:00 0°C° 0.1 mm 4 m/s 749 mmHg 88%
16:00 -1°C° 0.1 mm 4 m/s 749 mmHg 92%
17:00 -2°C° 0 mm 4 m/s 749 mmHg 90%
18:00 -1°C° 0 mm 3 m/s 749 mmHg 88%
19:00 -1°C° 0 mm 3 m/s 750 mmHg 86%
20:00 -2°C° 0 mm 3 m/s 750 mmHg 85%
21:00 -2°C° 0 mm 3 m/s 750 mmHg 85%
22:00 -3°C° 0 mm 2 m/s 751 mmHg 85%
23:00 -3°C° 0 mm 2 m/s 751 mmHg 84%

Depois de amanhã, 5 Março, Sexta-feira

Tempo Temperatura Precipitação Vento Pressão Humidade
00:00 -3°C° 0 mm 2 m/s 751 mmHg 83%
01:00 -3°C° 0 mm 2 m/s 751 mmHg 82%
02:00 -3°C° 0 mm 2 m/s 751 mmHg 80%
03:00 -3°C° 0 mm 2 m/s 751 mmHg 77%
04:00 -3°C° 0 mm 2 m/s 751 mmHg 75%
05:00 -3°C° 0 mm 2 m/s 752 mmHg 75%
06:00 -2°C° 0 mm 2 m/s 752 mmHg 74%
07:00 -2°C° 0 mm 3 m/s 752 mmHg 73%
08:00 -1°C° 0 mm 3 m/s 753 mmHg 64%
09:00 0°C° 0 mm 3 m/s 753 mmHg 56%
10:00 +1°C° 0 mm 3 m/s 753 mmHg 47%
11:00 0°C° 0.1 mm 4 m/s 753 mmHg 47%
12:00 +1°C° 0.1 mm 4 m/s 754 mmHg 47%
13:00 +1°C° 0.1 mm 4 m/s 754 mmHg 46%
14:00 0°C° 0.1 mm 4 m/s 754 mmHg 50%
15:00 0°C° 0.1 mm 5 m/s 754 mmHg 53%
16:00 -1°C° 0.1 mm 5 m/s 754 mmHg 56%
17:00 -2°C° 0 mm 4 m/s 755 mmHg 62%
18:00 -2°C° 0 mm 4 m/s 756 mmHg 69%
19:00 -2°C° 0 mm 3 m/s 756 mmHg 75%
20:00 -2°C° 0 mm 3 m/s 757 mmHg 75%
21:00 -3°C° 0 mm 2 m/s 757 mmHg 75%
22:00 -3°C° 0 mm 2 m/s 758 mmHg 75%
23:00 -3°C° 0 mm 2 m/s 758 mmHg 73%

6 Março, Sábado

Tempo Temperatura Precipitação Vento Pressão Humidade
00:00 -3°C° 0 mm 2 m/s 759 mmHg 71%
01:00 -3°C° 0 mm 2 m/s 759 mmHg 69%
02:00 -3°C° 0 mm 2 m/s 759 mmHg 69%
03:00 -3°C° 0 mm 2 m/s 759 mmHg 69%
04:00 -3°C° 0 mm 2 m/s 759 mmHg 69%
05:00 -3°C° 0 mm 2 m/s 759 mmHg 68%
06:00 -3°C° 0 mm 2 m/s 759 mmHg 66%
07:00 -3°C° 0 mm 2 m/s 760 mmHg 64%
08:00 -2°C° 0 mm 2 m/s 760 mmHg 57%
09:00 0°C° 0 mm 3 m/s 760 mmHg 51%
10:00 0°C° 0 mm 4 m/s 760 mmHg 44%
11:00 0°C° 0 mm 4 m/s 760 mmHg 43%
12:00 +1°C° 0 mm 5 m/s 759 mmHg 42%
13:00 +2°C° 0 mm 5 m/s 759 mmHg 41%
14:00 +1°C° 0 mm 6 m/s 758 mmHg 46%
15:00 -1°C° 0 mm 6 m/s 758 mmHg 51%
16:00 -1°C° 0 mm 6 m/s 757 mmHg 56%
17:00 -2°C° 0 mm 6 m/s 757 mmHg 63%
18:00 -2°C° 0 mm 6 m/s 756 mmHg 69%
19:00 -3°C° 0 mm 6 m/s 756 mmHg 76%
20:00 -3°C° 0.1 mm 6 m/s 755 mmHg 79%
21:00 -2°C° 0.1 mm 7 m/s 755 mmHg 83%
22:00 -2°C° 0.1 mm 7 m/s 755 mmHg 87%
23:00 -2°C° 0 mm 7 m/s 754 mmHg 86%

7 Março, Domingo

Tempo Temperatura Precipitação Vento Pressão Humidade
00:00 -2°C° 0 mm 7 m/s 754 mmHg 86%
01:00 -2°C° 0 mm 7 m/s 753 mmHg 86%
02:00 -2°C° 0 mm 7 m/s 753 mmHg 86%
03:00 -2°C° 0 mm 7 m/s 752 mmHg 86%
04:00 -3°C° 0 mm 7 m/s 751 mmHg 86%
05:00 -3°C° 0.1 mm 7 m/s 751 mmHg 88%
06:00 -2°C° 0.1 mm 7 m/s 751 mmHg 90%
07:00 -2°C° 0.1 mm 7 m/s 750 mmHg 92%
08:00 -2°C° 0.1 mm 7 m/s 750 mmHg 92%
09:00 -2°C° 0.1 mm 7 m/s 750 mmHg 93%
10:00 -2°C° 0.1 mm 7 m/s 750 mmHg 93%
11:00 -2°C° 0.1 mm 7 m/s 750 mmHg 93%
12:00 -2°C° 0.1 mm 7 m/s 750 mmHg 92%
13:00 -2°C° 0.1 mm 8 m/s 749 mmHg 91%
14:00 -2°C° 0.2 mm 7 m/s 749 mmHg 92%
15:00 -2°C° 0.2 mm 7 m/s 749 mmHg 94%
16:00 -2°C° 0.2 mm 7 m/s 749 mmHg 95%
17:00 -2°C° 0.9 mm 5 m/s 749 mmHg 92%
18:00 -2°C° 0.9 mm 4 m/s 749 mmHg 89%
19:00 -2°C° 0.9 mm 3 m/s 749 mmHg 87%
20:00 -4°C° 0 mm 3 m/s 750 mmHg 85%
21:00 -4°C° 0 mm 3 m/s 751 mmHg 83%
22:00 -3°C° 0 mm 2 m/s 751 mmHg 82%
23:00 -4°C° 0 mm 2 m/s 752 mmHg 80%

8 Março, Segunda-feira

Tempo Temperatura Precipitação Vento Pressão Humidade
00:00 -4°C° 0 mm 2 m/s 752 mmHg 79%
01:00 -4°C° 0 mm 2 m/s 752 mmHg 77%
02:00 -5°C° 0 mm 2 m/s 753 mmHg 78%
03:00 -5°C° 0 mm 2 m/s 753 mmHg 78%
04:00 -6°C° 0 mm 3 m/s 754 mmHg 78%
05:00 -6°C° 0 mm 3 m/s 754 mmHg 77%
06:00 -5°C° 0 mm 3 m/s 755 mmHg 76%
07:00 -5°C° 0 mm 3 m/s 755 mmHg 75%
08:00 -4°C° 0 mm 3 m/s 756 mmHg 70%
09:00 -2°C° 0 mm 3 m/s 756 mmHg 65%
10:00 -2°C° 0 mm 4 m/s 757 mmHg 61%
11:00 -2°C° 0 mm 4 m/s 757 mmHg 59%
12:00 0°C° 0 mm 3 m/s 757 mmHg 57%
13:00 0°C° 0 mm 3 m/s 758 mmHg 55%
14:00 0°C° 0 mm 3 m/s 758 mmHg 56%
15:00 0°C° 0 mm 3 m/s 758 mmHg 58%
16:00 +1°C° 0 mm 2 m/s 758 mmHg 59%
17:00 -1°C° 0 mm 2 m/s 758 mmHg 65%
18:00 -2°C° 0 mm 2 m/s 758 mmHg 70%
19:00 -2°C° 0 mm 1 m/s 758 mmHg 76%
20:00 -2°C° 0 mm 1 m/s 758 mmHg 76%
21:00 -2°C° 0 mm 1 m/s 759 mmHg 76%
22:00 -3°C° 0 mm 0 m/s 759 mmHg 76%
23:00 -2°C° 0 mm 1 m/s 759 mmHg 76%
Mostrar mais

Necessitamos do seu Consentimento

A Meteoprog e os seus Fornecedores de Serviços podem armazenar e aceder a dados pessoais como cookies, identificadores do dispositivo ou outras tecnologias semelhantes existentes no seu dispositivo e processar estes dados para personalizar conteúdos e anúncios, assim como funcionalidades nas redes sociais e análise de tráfego.

  • Armazenar e/ou aceder a informações no seu dispositivo

    Os cookies, identificadores do dispositivo ou outras informações podem ser armazenados ou acedidos no seu dispositivo, para os fins acima indicados.

  • Anúncios e conteúdos personalizados, medição de anúncios e conteúdos, dados sobre o público-alvo e desenvolvimento de produtos

    Os anúncios e os conteúdos podem ser personalizados com base num perfil. Podem ser adicionados dados adicionais para uma maior personalização dos anúncios e dos conteúdos. A eficácia dos anúncios e dos conteúdos pode ser medida. Podem ser obtidas informações sobre o público que visualizou os anúncios e os conteúdos. Estes dados podem ser usados para desenvolver ou melhorar sistemas, softwares ou a experiência do utilizador.

Ao clicar em "Eu concordo”, permitirá o uso de cookies, identificadores do dispositivo e web beacons mencionados ou outras tecnologias semelhantes. As configurações do navegador do seu dispositivo podem ser alteradas.

Para certos fins, podem ser invocados interesses legítimos ao invés de consentimento. Pode ler mais informação sobre este assunto na nossa Política de Privacidade e Cookies.